Weather History for PAQT - November, 2013

Change the Weather History Date:

Sunday, November 24, 2013

  Actual Average (PAKU) Record (PAKU)
Temperature  
Mean Temperature -8 °F -  
Max Temperature 1 °F 3 °F 28 °F (2002)
Min Temperature -17 °F -2 °F -37 °F (1991)
Degree Days  
Heating Degree Days 73    
Moisture  
Dew Point -12 °F    
Average Humidity 92    
Maximum Humidity 100    
Minimum Humidity 82    
Precipitation  
Precipitation 0.00 in - - ()
Sea Level Pressure  
Sea Level Pressure 30.18 in    
Wind  
Wind Speed 5 mph (SSW)    
Max Wind Speed 12 mph    
Max Gust Speed -    
Visibility 4 miles    
Events Fog , Snow    
Averages and records for this station are not official NWS values.
T = Trace of Precipitation, MM = Missing Value Source: NWS Daily Summary

Daily Weather History Graph

Daily Weather History Graph

Search for Another Location

Airport or City:

Trip Planner

Search our weather history database for the weather conditions in past years. The results will help you decide how hot, cold, wet, or windy it might be!

Date:

Astronomy

Nov. 24, 2013 Rise Set
Actual Time 12:18 PM AKST 1:23 PM AKST
Civil Twilight 9:54 AM AKST 3:45 PM AKST
Nautical Twilight 8:23 AM AKST 5:17 PM AKST
Astronomical Twilight 7:07 AM AKST 6:33 PM AKST
Moon 11:13 PM AKST (11/24) 2:07 PM AKST (11/24)
Length of Visible Light 5h 51m
Length of Day
1h 04m
Waning Gibbous, 59% of the Moon is Illuminated
Nov 24
Waning Gibbous
Nov 25
Last Quarter
Dec 2
New
Dec 9
First Quarter
Dec 17
Full

Hourly Weather History & Observations

Time (AKST) Temp. Windchill Dew Point Humidity Pressure Visibility Wind Dir Wind Speed Gust Speed Precip Events Conditions
12:53 AM 1.9 °F - -0.9 °F 88% 29.97 in 5.0 mi Calm Calm - 0.00 in Snow Light Snow
1:53 AM 1.9 °F -5.6 °F -0.9 °F 88% 29.99 in 4.0 mi SW 3.5 mph - 0.00 in Snow Light Snow
2:53 AM 1.0 °F -10.3 °F -0.9 °F 91% 30.00 in 4.0 mi SSW 5.8 mph - 0.00 in   Overcast
3:53 AM 1.0 °F -10.3 °F -2.0 °F 87% 30.02 in 8.0 mi WSW 5.8 mph - 0.00 in   Overcast
4:53 AM -0.0 °F -13.0 °F -2.0 °F 91% 30.04 in 8.0 mi SSW 6.9 mph - 0.00 in   Overcast
5:53 AM -0.0 °F -7.9 °F -2.0 °F 91% 30.05 in 10.0 mi West 3.5 mph - 0.00 in   Overcast
6:53 AM -0.0 °F -13.0 °F -2.0 °F 91% 30.07 in 10.0 mi South 6.9 mph - 0.00 in   Overcast
7:53 AM -0.9 °F -11.0 °F -2.9 °F 91% 30.08 in 10.0 mi SSW 4.6 mph - 0.00 in   Overcast
8:53 AM -2.9 °F -11.2 °F -5.1 °F 90% 30.09 in 7.0 mi SSW 3.5 mph - N/A   Overcast
9:53 AM -9.0 °F -22.3 °F -9.9 °F 96% 30.12 in 10.0 mi South 5.8 mph - N/A   Partly Cloudy
10:53 AM -9.9 °F -23.4 °F -13.0 °F 86% 30.14 in 10.0 mi South 5.8 mph - N/A   Overcast
11:53 AM -9.0 °F -18.2 °F -11.0 °F 91% 30.15 in 6.0 mi SSW 3.5 mph - N/A   Clear
12:53 PM -9.9 °F -24.9 °F -13.0 °F 86% 30.17 in 10.0 mi SSW 6.9 mph - N/A   Partly Cloudy
1:53 PM -16.1 °F -30.6 °F -17.0 °F 96% 30.18 in 10.0 mi SSW 5.8 mph - N/A   Mostly Cloudy
2:07 PM -15.0 °F -29.3 °F -17.0 °F 91% 30.18 in 8.0 mi SSW 5.8 mph - N/A   Mostly Cloudy
3:01 PM -15.0 °F -29.3 °F -18.0 °F 86% 30.19 in 8.0 mi SSW 5.8 mph - N/A   Mostly Cloudy
3:32 PM -15.0 °F -29.3 °F -18.9 °F 82% 30.19 in 1.8 mi SW 5.8 mph - N/A   Overcast
3:46 PM -16.1 °F -32.3 °F -17.0 °F 96% 30.19 in 3.0 mi South 6.9 mph - N/A   Overcast
3:53 PM -17.0 °F -36.1 °F -18.9 °F 91% 30.20 in 8.0 mi South 9.2 mph - N/A   Overcast
4:16 PM -16.1 °F -32.3 °F -18.9 °F 87% 30.20 in 2.0 mi SW 6.9 mph - N/A   Overcast
4:20 PM -16.1 °F -30.6 °F -17.0 °F 96% 30.20 in 0.8 mi SSW 5.8 mph - N/A   Mist
4:30 PM -17.0 °F -33.4 °F -17.0 °F 100% 30.20 in 0.2 mi SSW 6.9 mph - N/A Fog Light Freezing Fog
4:53 PM -15.0 °F -32.4 °F -16.1 °F 95% 30.21 in 0.8 mi South 8.1 mph - N/A   Overcast
5:50 PM -14.8 °F -34.6 °F -14.8 °F 100% 30.22 in 0.5 mi SSW 10.4 mph - N/A Fog Light Freezing Fog
5:53 PM -14.1 °F -31.3 °F -15.0 °F 96% 30.22 in 0.5 mi SSW 8.1 mph - N/A Fog Light Freezing Fog
6:27 PM -15.0 °F -31.0 °F -16.1 °F 95% 30.22 in 0.8 mi SSW 6.9 mph - N/A   Mist
6:37 PM -16.1 °F -32.3 °F -17.0 °F 96% 30.23 in 1.2 mi SSW 6.9 mph - N/A   Overcast
6:47 PM -16.6 °F -31.3 °F -18.4 °F 92% 30.23 in 0.8 mi SW 5.8 mph - N/A   Mist
6:53 PM -16.1 °F -30.6 °F -17.0 °F 96% 30.24 in 0.5 mi South 5.8 mph - N/A Fog Light Freezing Fog
7:30 PM -13.0 °F -28.6 °F -14.1 °F 95% 30.24 in 1.0 mi South 6.9 mph - N/A   Overcast
7:38 PM -13.0 °F -28.6 °F -14.1 °F 95% 30.24 in 3.0 mi South 6.9 mph - N/A   Overcast
7:44 PM -13.0 °F -30.0 °F -15.0 °F 91% 30.24 in 1.8 mi SSW 8.1 mph - N/A   Overcast
7:53 PM -13.0 °F -28.6 °F -15.0 °F 91% 30.25 in 1.5 mi SSW 6.9 mph - N/A   Overcast
8:00 PM -13.0 °F -27.0 °F -14.1 °F 95% 30.24 in 3.0 mi SSW 5.8 mph - N/A   Overcast
8:09 PM -13.0 °F -30.0 °F -15.0 °F 91% 30.25 in 1.8 mi SSW 8.1 mph - N/A   Overcast
8:19 PM -13.0 °F -28.6 °F -15.0 °F 91% 30.25 in 0.5 mi SSW 6.9 mph - N/A Fog Light Freezing Fog
8:53 PM -11.9 °F -27.3 °F -14.1 °F 90% 30.27 in 0.5 mi SSW 6.9 mph - N/A Fog Light Freezing Fog
9:22 PM -11.0 °F -27.6 °F -11.9 °F 96% 30.26 in 1.8 mi SSW 8.1 mph - N/A   Overcast
9:36 PM -11.0 °F -26.2 °F -11.9 °F 96% 30.26 in 3.0 mi SSW 6.9 mph - N/A   Overcast
9:53 PM -9.9 °F -26.3 °F -11.0 °F 95% 30.27 in 4.0 mi SSW 8.1 mph - N/A   Overcast
10:53 PM -9.9 °F -29.6 °F -11.0 °F 95% 30.29 in 5.0 mi SSW 11.5 mph - N/A   Overcast
11:51 PM -9.4 °F -28.9 °F -11.2 °F 92% 30.29 in 6.0 mi SSW 11.5 mph - N/A   Overcast
11:53 PM -9.9 °F -29.6 °F -11.9 °F 91% 30.30 in 6.0 mi SSW 11.5 mph - N/A   Overcast